Time,TemperatureF,DewpointF,PressureIn,WindDirection,WindDirectionDegrees,WindSpeedMPH,WindSpeedGustMPH,Humidity,HourlyPrecipIn,Conditions,Clouds,dailyrainin,SoftwareType,DateUTC
2013-11-01 00:07:00,58.3,56.0,29.75,SSW,209,9.0,16.0,93,0.03,,,0.23,weatherlink.com 1.10,2013-11-01 04:07:00,
2013-11-01 00:22:00,58.2,56.0,29.73,SSW,209,10.0,17.0,93,0.05,,,0.25,weatherlink.com 1.10,2013-11-01 04:22:00,
2013-11-01 00:37:00,58.1,56.0,29.72,SSW,195,8.0,15.0,94,0.03,,,0.25,weatherlink.com 1.10,2013-11-01 04:37:00,
2013-11-01 00:52:00,58.3,57.0,29.71,SSW,199,11.0,17.0,94,0.04,,,0.26,weatherlink.com 1.10,2013-11-01 04:52:00,
2013-11-01 01:07:00,58.4,57.0,29.71,SSW,213,13.0,16.0,94,0.03,,,0.26,weatherlink.com 1.10,2013-11-01 05:07:00,
2013-11-01 01:22:00,58.5,57.0,29.70,SSW,209,10.0,17.0,94,0.01,,,0.26,weatherlink.com 1.10,2013-11-01 05:22:00,
2013-11-01 01:37:00,58.5,57.0,29.68,SSW,210,10.0,12.0,94,0.02,,,0.27,weatherlink.com 1.10,2013-11-01 05:37:00,
2013-11-01 01:52:00,58.7,57.0,29.68,SSW,199,10.0,16.0,95,0.01,,,0.27,weatherlink.com 1.10,2013-11-01 05:52:00,
2013-11-01 02:07:00,58.9,58.0,29.67,SSW,205,7.0,14.0,95,0.01,,,0.27,weatherlink.com 1.10,2013-11-01 06:07:00,
2013-11-01 02:23:00,59.3,58.0,29.66,SW,221,13.0,21.0,95,0.01,,,0.27,weatherlink.com 1.10,2013-11-01 06:23:00,
2013-11-01 02:38:00,59.6,58.0,29.64,South,186,12.0,17.0,95,0.00,,,0.27,weatherlink.com 1.10,2013-11-01 06:38:00,
2013-11-01 02:53:00,60.2,59.0,29.63,South,191,13.0,19.0,95,0.00,,,0.27,weatherlink.com 1.10,2013-11-01 06:53:00,
2013-11-01 03:08:00,60.9,59.0,29.62,SW,236,10.0,23.0,94,0.00,,,0.27,weatherlink.com 1.10,2013-11-01 07:08:00,
2013-11-01 03:23:00,61.5,60.0,29.62,SW,233,13.0,21.0,93,0.00,,,0.27,weatherlink.com 1.10,2013-11-01 07:23:00,
2013-11-01 03:38:00,61.9,60.0,29.61,SSW,211,7.0,22.0,92,0.00,,,0.27,weatherlink.com 1.10,2013-11-01 07:38:00,
2013-11-01 03:53:00,62.3,60.0,29.59,SW,218,10.0,23.0,92,0.00,,,0.27,weatherlink.com 1.10,2013-11-01 07:53:00,
2013-11-01 04:08:00,62.6,60.0,29.59,SW,234,12.0,19.0,91,0.01,,,0.28,weatherlink.com 1.10,2013-11-01 08:08:00,
2013-11-01 04:23:00,62.5,60.0,29.58,SW,233,15.0,25.0,92,0.01,,,0.28,weatherlink.com 1.10,2013-11-01 08:23:00,
2013-11-01 04:38:00,62.5,61.0,29.57,SW,234,11.0,19.0,93,0.01,,,0.28,weatherlink.com 1.10,2013-11-01 08:38:00,
2013-11-01 04:53:00,62.9,61.0,29.56,SSW,194,14.0,26.0,92,0.01,,,0.28,weatherlink.com 1.10,2013-11-01 08:53:00,
2013-11-01 05:08:00,63.2,61.0,29.55,SW,229,12.0,26.0,91,0.00,,,0.28,weatherlink.com 1.10,2013-11-01 09:08:00,
2013-11-01 05:23:00,63.6,61.0,29.54,WSW,254,14.0,33.0,91,0.00,,,0.28,weatherlink.com 1.10,2013-11-01 09:23:00,
2013-11-01 05:38:00,64.0,61.0,29.54,SSW,200,11.0,28.0,90,0.00,,,0.28,weatherlink.com 1.10,2013-11-01 09:38:00,
2013-11-01 05:53:00,64.3,61.0,29.52,SSW,195,13.0,23.0,89,0.00,,,0.28,weatherlink.com 1.10,2013-11-01 09:53:00,
2013-11-01 06:08:00,64.6,61.0,29.52,SSW,205,17.0,24.0,88,0.00,,,0.28,weatherlink.com 1.10,2013-11-01 10:08:00,
2013-11-01 06:23:00,64.8,61.0,29.51,WSW,249,12.0,23.0,87,0.00,,,0.28,weatherlink.com 1.10,2013-11-01 10:23:00,
2013-11-01 06:38:00,65.2,61.0,29.51,WSW,241,15.0,23.0,86,0.00,,,0.28,weatherlink.com 1.10,2013-11-01 10:38:00,
2013-11-01 06:53:00,65.4,61.0,29.51,SW,221,13.0,26.0,86,0.00,,,0.28,weatherlink.com 1.10,2013-11-01 10:53:00,
2013-11-01 07:08:00,65.6,61.0,29.50,WSW,237,12.0,24.0,86,0.00,,,0.28,weatherlink.com 1.10,2013-11-01 11:08:00,
2013-11-01 07:23:00,65.9,61.0,29.50,SSW,203,13.0,25.0,85,0.00,,,0.28,weatherlink.com 1.10,2013-11-01 11:23:00,
2013-11-01 07:38:00,66.3,62.0,29.50,SW,234,8.0,22.0,86,0.00,,,0.28,weatherlink.com 1.10,2013-11-01 11:38:00,
2013-11-01 07:53:00,66.4,62.0,29.49,SW,233,16.0,30.0,86,0.00,,,0.28,weatherlink.com 1.10,2013-11-01 11:53:00,
2013-11-01 08:08:00,66.7,62.0,29.49,SW,219,15.0,26.0,85,0.00,,,0.28,weatherlink.com 1.10,2013-11-01 12:08:00,
2013-11-01 08:23:00,66.9,62.0,29.48,WSW,238,11.0,26.0,84,0.00,,,0.28,weatherlink.com 1.10,2013-11-01 12:23:00,
2013-11-01 08:39:00,67.2,62.0,29.48,SW,217,12.0,29.0,84,0.00,,,0.28,weatherlink.com 1.10,2013-11-01 12:39:00,
2013-11-01 08:54:00,67.3,62.0,29.47,WSW,241,13.0,28.0,84,0.00,,,0.28,weatherlink.com 1.10,2013-11-01 12:54:00,
2013-11-01 09:09:00,67.4,62.0,29.46,SW,226,16.0,27.0,83,0.00,,,0.28,weatherlink.com 1.10,2013-11-01 13:09:00,
2013-11-01 09:24:00,67.5,63.0,29.45,SW,236,20.0,27.0,84,0.00,,,0.28,weatherlink.com 1.10,2013-11-01 13:24:00,
2013-11-01 09:39:00,66.8,63.0,29.46,West,265,23.0,26.0,86,0.01,,,0.29,weatherlink.com 1.10,2013-11-01 13:39:00,
2013-11-01 09:54:00,61.5,58.0,29.52,SW,232,12.0,21.0,88,0.07,,,0.35,weatherlink.com 1.10,2013-11-01 13:54:00,
2013-11-01 10:09:00,59.6,57.0,29.52,WSW,249,9.0,19.0,91,0.08,,,0.36,weatherlink.com 1.10,2013-11-01 14:09:00,
2013-11-01 10:24:00,59.0,56.0,29.53,SW,223,10.0,17.0,91,0.08,,,0.36,weatherlink.com 1.10,2013-11-01 14:24:00,
2013-11-01 10:39:00,58.9,56.0,29.53,WSW,253,6.0,16.0,91,0.06,,,0.36,weatherlink.com 1.10,2013-11-01 14:39:00,
2013-11-01 10:54:00,58.8,56.0,29.51,SW,229,6.0,11.0,91,0.01,,,0.36,weatherlink.com 1.10,2013-11-01 14:54:00,
2013-11-01 11:09:00,59.0,57.0,29.49,SSW,202,6.0,9.0,92,0.00,,,0.36,weatherlink.com 1.10,2013-11-01 15:09:00,
2013-11-01 11:24:00,59.0,57.0,29.49,South,190,6.0,13.0,92,0.00,,,0.36,weatherlink.com 1.10,2013-11-01 15:24:00,
2013-11-01 11:39:00,59.1,57.0,29.49,SW,235,8.0,13.0,92,0.01,,,0.37,weatherlink.com 1.10,2013-11-01 15:39:00,
2013-11-01 11:54:00,59.6,56.0,29.48,South,191,10.0,14.0,89,0.01,,,0.37,weatherlink.com 1.10,2013-11-01 15:54:00,
2013-11-01 12:09:00,60.3,56.0,29.51,SSW,207,7.0,14.0,86,0.01,,,0.37,weatherlink.com 1.10,2013-11-01 16:09:00,
2013-11-01 12:24:00,61.0,56.0,29.49,SW,223,8.0,16.0,83,0.01,,,0.37,weatherlink.com 1.10,2013-11-01 16:24:00,
2013-11-01 12:39:00,61.6,56.0,29.49,West,261,3.0,18.0,82,0.00,,,0.37,weatherlink.com 1.10,2013-11-01 16:39:00,
2013-11-01 12:54:00,62.0,56.0,29.49,SSW,205,9.0,24.0,81,0.00,,,0.37,weatherlink.com 1.10,2013-11-01 16:54:00,
2013-11-01 13:09:00,62.3,56.0,29.48,SW,232,9.0,17.0,80,0.00,,,0.37,weatherlink.com 1.10,2013-11-01 17:09:00,
2013-11-01 13:24:00,62.5,56.0,29.48,WSW,242,11.0,16.0,79,0.00,,,0.37,weatherlink.com 1.10,2013-11-01 17:24:00,
2013-11-01 13:39:00,63.0,56.0,29.47,WSW,249,11.0,14.0,78,0.00,,,0.37,weatherlink.com 1.10,2013-11-01 17:39:00,
2013-11-01 13:54:00,64.2,57.0,29.47,West,277,8.0,18.0,78,0.00,,,0.37,weatherlink.com 1.10,2013-11-01 17:54:00,
2013-11-01 14:09:00,65.3,56.0,29.47,WSW,249,8.0,19.0,73,0.00,,,0.37,weatherlink.com 1.10,2013-11-01 18:09:00,
2013-11-01 14:24:00,66.1,56.0,29.46,WSW,244,7.0,16.0,71,0.00,,,0.37,weatherlink.com 1.10,2013-11-01 18:24:00,
2013-11-01 14:39:00,66.7,56.0,29.46,WSW,238,15.0,19.0,69,0.00,,,0.37,weatherlink.com 1.10,2013-11-01 18:39:00,
2013-11-01 14:54:00,66.4,55.0,29.46,WSW,240,5.0,16.0,67,0.00,,,0.37,weatherlink.com 1.10,2013-11-01 18:54:00,
2013-11-01 15:09:00,66.6,54.0,29.46,SW,236,8.0,20.0,65,0.00,,,0.37,weatherlink.com 1.10,2013-11-01 19:09:00,
2013-11-01 15:24:00,67.4,55.0,29.46,SW,222,9.0,23.0,64,0.00,,,0.37,weatherlink.com 1.10,2013-11-01 19:24:00,
2013-11-01 15:39:00,68.2,55.0,29.47,SW,219,9.0,19.0,62,0.00,,,0.37,weatherlink.com 1.10,2013-11-01 19:39:00,
2013-11-01 15:54:00,68.0,53.0,29.47,WSW,243,11.0,21.0,60,0.00,,,0.37,weatherlink.com 1.10,2013-11-01 19:54:00,
2013-11-01 16:09:00,67.9,54.0,29.47,SW,232,5.0,15.0,61,0.00,,,0.37,weatherlink.com 1.10,2013-11-01 20:09:00,
2013-11-01 16:24:00,67.8,53.0,29.48,WSW,240,6.0,15.0,60,0.00,,,0.37,weatherlink.com 1.10,2013-11-01 20:24:00,
2013-11-01 16:39:00,67.8,53.0,29.48,West,265,5.0,16.0,59,0.00,,,0.37,weatherlink.com 1.10,2013-11-01 20:39:00,
2013-11-01 16:54:00,68.1,53.0,29.48,West,273,6.0,11.0,58,0.00,,,0.37,weatherlink.com 1.10,2013-11-01 20:54:00,
2013-11-01 17:09:00,67.9,52.0,29.48,SW,219,8.0,11.0,58,0.00,,,0.37,weatherlink.com 1.10,2013-11-01 21:09:00,
2013-11-01 17:24:00,67.4,52.0,29.48,SW,234,5.0,8.0,59,0.00,,,0.37,weatherlink.com 1.10,2013-11-01 21:24:00,
2013-11-01 17:39:00,66.7,49.0,29.48,WSW,243,8.0,13.0,54,0.00,,,0.00,weatherlink.com 1.10,2013-11-01 21:39:00,
2013-11-01 17:54:00,66.1,47.0,29.49,SW,217,5.0,13.0,50,0.00,,,0.00,weatherlink.com 1.10,2013-11-01 21:54:00,
2013-11-01 18:10:00,65.3,49.0,29.50,West,261,4.0,10.0,55,0.00,,,0.00,weatherlink.com 1.10,2013-11-01 22:10:00,
2013-11-01 18:25:00,64.6,49.0,29.51,SW,231,6.0,8.0,58,0.00,,,0.00,weatherlink.com 1.10,2013-11-01 22:25:00,
2013-11-01 18:40:00,64.0,49.0,29.52,SW,224,5.0,10.0,59,0.00,,,0.00,weatherlink.com 1.10,2013-11-01 22:40:00,
2013-11-01 18:55:00,63.2,49.0,29.53,SW,232,5.0,9.0,61,0.00,,,0.00,weatherlink.com 1.10,2013-11-01 22:55:00,
2013-11-01 19:10:00,62.8,51.0,29.55,SW,230,6.0,9.0,65,0.00,,,0.00,weatherlink.com 1.10,2013-11-01 23:10:00,
2013-11-01 19:25:00,62.1,51.0,29.56,SSW,196,2.0,8.0,68,0.00,,,0.00,weatherlink.com 1.10,2013-11-01 23:25:00,
2013-11-01 19:40:00,61.2,51.0,29.56,SSW,192,4.0,5.0,70,0.00,,,0.00,weatherlink.com 1.10,2013-11-01 23:40:00,
2013-11-01 19:55:00,60.2,51.0,29.57,SSW,194,3.0,6.0,72,0.00,,,0.00,weatherlink.com 1.10,2013-11-01 23:55:00,
2013-11-01 20:10:00,59.5,51.0,29.57,SSW,194,2.0,4.0,74,0.00,,,0.00,weatherlink.com 1.10,2013-11-02 00:10:00,
2013-11-01 20:25:00,59.5,51.0,29.58,SSW,207,3.0,6.0,74,0.00,,,0.00,weatherlink.com 1.10,2013-11-02 00:25:00,
2013-11-01 20:40:00,59.3,51.0,29.59,SW,217,4.0,7.0,75,0.00,,,0.00,weatherlink.com 1.10,2013-11-02 00:40:00,
2013-11-01 20:55:00,59.4,51.0,29.59,SSW,207,4.0,6.0,74,0.00,,,0.00,weatherlink.com 1.10,2013-11-02 00:55:00,
2013-11-01 21:10:00,59.6,51.0,29.60,West,265,4.0,8.0,72,0.00,,,0.00,weatherlink.com 1.10,2013-11-02 01:10:00,
2013-11-01 21:25:00,59.9,50.0,29.60,SSW,212,5.0,6.0,71,0.00,,,0.00,weatherlink.com 1.10,2013-11-02 01:25:00,
2013-11-01 21:40:00,59.7,50.0,29.61,SSW,213,4.0,7.0,71,0.00,,,0.00,weatherlink.com 1.10,2013-11-02 01:40:00,
2013-11-01 21:55:00,59.3,50.0,29.61,SSW,211,2.0,7.0,70,0.00,,,0.00,weatherlink.com 1.10,2013-11-02 01:55:00,
2013-11-01 22:10:00,59.1,50.0,29.62,SSW,208,5.0,5.0,71,0.00,,,0.00,weatherlink.com 1.10,2013-11-02 02:10:00,
2013-11-01 22:25:00,58.5,49.0,29.62,SW,216,3.0,7.0,71,0.00,,,0.00,weatherlink.com 1.10,2013-11-02 02:25:00,
2013-11-01 22:40:00,58.3,49.0,29.64,SSW,201,6.0,8.0,70,0.00,,,0.00,weatherlink.com 1.10,2013-11-02 02:40:00,
2013-11-01 22:55:00,57.8,47.0,29.64,SW,224,3.0,6.0,68,0.00,,,0.00,weatherlink.com 1.10,2013-11-02 02:55:00,
2013-11-01 23:10:00,57.6,47.0,29.64,West,262,2.0,4.0,67,0.00,,,0.00,weatherlink.com 1.10,2013-11-02 03:10:00,
2013-11-01 23:25:00,57.5,47.0,29.64,WSW,242,3.0,5.0,68,0.00,,,0.00,weatherlink.com 1.10,2013-11-02 03:25:00,
2013-11-01 23:41:00,56.1,47.0,29.65,NE,52,2.0,12.0,71,0.00,,,0.00,weatherlink.com 1.10,2013-11-02 03:41:00,
2013-11-01 23:56:00,53.6,46.0,29.64,NE,54,0.0,5.0,74,0.00,,,0.00,weatherlink.com 1.10,2013-11-02 03:56:00,